200 serials | updatemydriver version 9.0 build 5 registration key

Date Name Success Rate
2009-10-17 06:23:04 FotoBatch 5 Pro Build 1113 SERIAL 67%
2009-10-17 06:26:27 Knownsoft Turbo Searcher Standard Version V3.50 Build 061114 Keymaker 47%
2009-10-17 06:26:27 Kon V2.0 Build 5 52%
2009-10-17 06:27:02 Lazarus Registration DLL V1.0 59%
2009-10-17 06:27:46 Magic DVD Ripper V5.3 Build 5 50%
2009-10-17 06:27:46 MagicISO Maker V5.4 Build 0239 Key-FYSP 0%
2009-10-17 06:27:46 MagicISO Maker V5.4 Build 0245 Key-DEC0DE 73%
2009-10-17 06:27:46 Magix Mp3 Maker 10 DeLuxe V6.10 Build 513 E Version 75%
2009-10-23 07:01:13 1st Simple HTML Editor 2.1 Build 5 0%
2009-10-22 23:27:12 Acronis Disk Director Suite 9.0 Build 533 0%
2009-10-22 23:27:12 Acronis True Image 9.0 Build 2337 0%
2009-10-22 23:27:13 Ad-aware Professional Version 6 Build 181 0%
2009-10-22 23:27:13 Adobe Photoshop 9.0 CS2 Full Version 86%
2009-10-22 23:27:14 Advanced Key And Mouse Recorder 2.9.9.1 Build 4459 60%
2009-10-22 23:27:17 Alcohol 120% 1.4.3 BUILD 410 FINAL KEY 0%
2009-10-22 23:27:17 Alcohol Version 1.9.5 Build 2802 0%
2009-10-22 23:27:21 Ardamax Keylogger 2.9 Registration 56%
2009-10-22 23:27:23 Ashampoo Burning Studio 5, Version 5.0.0 0%
2009-10-22 23:27:25 Audio Mid Recorder Version 3.65 Build 1326 0%
2009-10-22 23:44:48 BarCode Descriptor 1.2 Build 5 0%
2009-10-22 23:44:51 Brasfoot 2006 Build 5 0%
2009-10-22 23:45:48 Call Of Duty 5 *NEW KEY* 0%
2009-10-22 23:45:48 Call Of Duty 5 Beta Key Pc 0%
2009-10-22 23:45:48 Call Of Duty: World At War ORIGINAL KEY - All Version 0%
2009-10-22 23:46:29 Du Meter Version 3.07 Build 200 0%
2009-10-22 23:46:30 DVD Region+CSS Free Version: 5.xx 0%
2009-10-22 23:47:39 Easy CD-DA Extractor 7.05 Build 5 43%
2009-10-22 23:47:51 Flash 5 Eng Full Version 0%
2009-10-22 23:47:53 FotoBatch 5 Pro Build 1113 0%
2009-10-22 23:48:07 Hidden And Dangerous 2 Dt. Version (3cds) Instal Key 0%
2009-10-22 23:48:17 Internet Download Manager 4.03 Build 5 67%
2009-10-22 23:48:17 Internet Download Manager 5.09 Build 5 60%
2009-10-22 23:48:17 Internet Download Manager Registration 50%
2009-10-22 23:48:44 Macro Express Version 3.5d Build 1 3.5.4.1 0%
2009-10-22 23:48:45 Magic DVD Ripper V5.3.build 5 0%
2009-10-22 23:48:45 Magic ISO Maker Version 5.5 (build 0265) 72%
2009-10-22 23:48:47 Medal Of Honor (MOHAA) English Version CD Key 0%
2009-10-22 23:48:48 MemoriesonTV Registration 0%
2009-10-22 23:48:49 Microsoft Registration Hacker - 39%
2009-10-22 23:48:50 Mks Vir Universal Key ALL Version 72%
2009-10-22 23:48:53 MySQL-Front V3.1 Build 9.0 0%
2009-10-22 23:49:02 Norton AntiVirus 2004 Professional - Key 1-5 0%
2009-10-22 23:49:11 O&O Defrag Version 8.0 Build 1398 0%
2009-10-22 23:49:19 Pajaczek 5 NxG Standard KEY 0%
2009-10-22 23:49:20 PC Cillin 2005 Version 12.00 Build 1244 0%
2009-10-22 23:49:20 PCDJ Red Version 5.3 Build 1012 90%
2009-10-22 23:49:23 Picasa Version 1.5.0 Build 4.15 Final Release 0%
2009-10-22 23:49:23 Pinnacle Hollywood FX Mega Version 5 For Studio 0%
2009-10-22 23:49:26 PowerDVD 9.0 Version Deluxe 0%
2009-10-22 23:49:26 PowerDVD 9.0 Version Ultra 0%
2009-10-22 23:49:42 Registration Wizard 56%
2009-10-22 23:49:53 Simply Accounting Version 9.0 19%
2009-10-22 23:49:54 Smartstore.biz 5. Ultimate Version (Brand New!!!) 0%
2009-10-22 23:49:55 SoftReef Lab CompuPIC Version 6.23 Build 13 0%
2009-10-22 23:49:56 Sony DVD Architect Version 1.0d (Build 230) 63%
2009-10-22 23:49:56 Sony Sound Forge 7.0 Version 7.0 (Build 214) 57%
2009-10-22 23:49:57 SoudForge ALL (No Registration Requiered) 0%
2009-10-22 23:50:03 System Mechanic 5 Pro Trial Version Key 58%
2009-10-22 23:50:26 Valve's Registration Armor Key-Gen 60%
2009-10-22 23:50:28 VMWare Workstation 5 Public Beta - E.x.p. Build 11608 0%
2009-10-22 23:50:35 Winamp 5 Full Version 80%
2009-10-22 23:50:35 Winamp 5.xx (Build Xx) Pro 0%
2009-10-22 23:50:35 Windows Longhorn Version: ALFA Build 4015 0%
2009-10-22 23:50:36 Windows XP Build 2474/5 0%
2009-10-22 23:50:37 Windows_XP Professional - SP2 Version 2002 Build 5.1.2600 0%
2009-10-22 23:50:38 WinSCL Version 4.0 Build 149 0%
2009-10-22 23:50:38 Winzip 9.0 Build 6028 80%
2009-10-22 23:50:38 WinZip 9.0 SR-1 Build 6224 0%
2009-10-22 23:50:39 WM Recorder 9.0 Build 100803 0%
2009-10-22 23:50:52 Ytunnel Version 2.0 Build 352 0%
2011-09-08 09:45:41 1st Simple HTML Editor v1.1 Build 5 0%
2011-09-08 09:57:40 Access Key v7.0.1180 Full Version 65%
2011-09-08 09:58:36 Acoustica Audio Converter Pro v1.0 Build 5 67%
2011-09-08 09:58:40 Acoustica Mixcraft v1.10 Build 15 Registration Info by MaBi 60%
2011-09-08 09:59:01 Acronis Partition Expert Beta Build 485 9.0 0%
2011-09-08 09:59:04 Acronis True Image 9.0 Build 2245 0%
2011-09-08 10:00:27 Adobe Dreamweaver CS3 9.0 build 41 0%
2011-09-08 10:05:03 Alcohol 120% v1.4.3 BUILD 410 FINAL KEY 0%
2011-09-08 10:05:06 Alert Bookmarks 8.0 Build 5 0%
2011-09-08 10:05:08 Alert Bookmarks v8.0 Build 5 0%
2011-09-08 10:06:47 AnetHelpTool v4.02 Registration 60%
2011-09-08 10:08:48 Ashampoo Burning Studio 5, version 5. 0%
2011-09-08 10:18:52 BarCode Descriptor 1.2 build 5 0%
2011-09-08 10:18:52 BarCode Descriptor v1.2 build 5 by TSRh 20%
2011-09-08 10:20:02 Bitdefender Internet Security 9.0.Build.9 0%
2011-09-08 10:20:02 BitDefender Professional Plus Version: 9 Build 9.5 0%
2011-09-08 10:21:42 Browserola v1.01 Temp. Registration 0%
2011-09-08 10:22:13 ByeLines Registration 60%
2011-09-08 10:23:38 Camtasia Studio 5 5.1.0 (build 505) 12%
2011-09-08 10:25:50 ChemMaths Version: 9.0 0%
2011-09-08 10:25:56 Cheyenne Bitware V4.0 Registration Number 60%
2011-09-08 10:31:36 Corel Print House 3.0 Build 278 Spanish Version 0%
2011-09-08 10:32:26 CryptCD-Home Version 5 0%
2011-09-08 10:32:26 CryptCD-Professional Version 5 0%
2011-09-08 10:33:06 CuteFTP XP 5 build 50.6.10.2 0%
2011-09-08 10:42:09 DAS Registration 1.5.2 69%
2011-09-08 10:42:09 DAS Registration For CW5 0%
2011-09-08 10:42:09 DAS Registration v1.5.2 0%
2011-09-08 10:43:51 DISCo Commander Version: 5.x 0%
2011-09-08 10:44:24 Doctor Aquarium Version: 1.0.4 Build 9 0%
2011-09-08 10:45:13 DU Meter Version: 3.02 Build 76 65%
2011-09-08 10:45:25 DVD Region+CSS Free Version: 5 0%
2011-09-08 10:46:55 Easy CD-DA Extractor v7.05 build 5 0%
2011-09-08 10:47:10 Easy MP3 v2.3 Build 5 0%
2011-09-08 10:47:10 Easy MP3 v2.3 Build 5 by CORE 0%
2011-09-08 10:48:46 Edge Diagrammer Version: 4.16 build 1783 0%
2011-09-08 10:50:06 Eudora Pro Version: 5.xx (Paid Mode) 0%
2011-09-08 10:50:26 Excel Key v7.0.1180 Full Version 20%
2011-09-08 10:50:45 Extensis Suitcase Version: 9.0 0%
2011-09-08 10:54:32 File.Security.Manager Version: 1.7.1.build.47 0%
2011-09-08 10:54:49 Fine Print 2000 Build 5 0%
2011-09-08 10:56:10 FontExplorerL.M Version: 4.0.0 Build 23 0%
2011-09-08 10:56:11 FontLook v3.1 Registration Code 86%
2011-09-08 10:56:22 FotoBatch 5 Pro build 1113 20%
2011-09-08 10:57:42 Ftgate Registration 63%
2011-09-08 11:06:13 HattrickPoli 5 build 501 0%
2011-09-08 11:06:13 HattrickPoli version 4 build 412 66%
2011-09-08 11:06:47 Hidden and dangerous 2 dt. version (3cds) instal key 0%
2011-09-08 11:15:04 ImTOO.OGG.Converter Version: 2.1.57.build.0510 0%
2011-09-08 11:15:16 Infodex v2.10 Registration 0%
2011-09-08 11:15:35 Install Shield 5 Professional International East Edition Build 224 0%
2011-09-08 11:16:24 Internet Download Manager 5.18 Build 5 66%
2011-09-08 11:16:24 Internet Download Manager 5.19 Build 5 65%
2011-09-08 11:20:33 Just The Fax version 2.9z Build 9 0%
2011-09-08 11:21:58 Kon v2.0 build 5 0%
2011-09-08 11:25:08 Lazarus Registration DLL v1.0 0%
2011-09-08 11:27:13 Longhorn Version: ALFA build 4015 0%
2011-09-08 11:27:46 Mac Opener v3.0 Registration 57%
2011-09-08 11:28:31 Magic.C.Plus.Plus Version: 3.5.Build.060210 0%
2011-09-08 11:31:51 Microsoft Registration Hacker 0%
2011-09-08 11:31:51 Microsoft Registration Hacker - 0%
2011-09-08 11:31:51 Microsoft Registration Hacker MSREGHACK 80%
2011-09-08 11:31:51 Microsoft Registration HackerMSREGHACK 0%
2011-09-08 11:31:51 Microsoft Visual Basic 5 registration cd key 72%
2011-09-08 11:32:27 MightyDAC v1.3.6 Build 5 0%
2011-09-08 11:32:59 mIRC v4.5+ Registration 60%
2011-09-08 11:32:59 mIRC v4.52 Registration 60%
2011-09-08 11:41:25 Net Control 2 Client Version v2.80 build 80%
2011-09-08 11:42:43 Nic O'Matic 1.6 Registration Code 50%
2011-09-08 11:42:43 Nic O'Matic v1.6 Registration Code 55%
2011-09-08 12:25:51 MyOddIcon 1.1.0 Build 5 0%
2011-09-08 12:26:47 Omnis 5 runtime version 0%
2011-09-08 12:27:09 Opera Version 8.0 Build 7561 0%
2011-09-08 12:34:57 PolyTrans V1.2E Registration Activator CD-Key 62%
2011-09-08 12:34:57 PolyView v2.9b16 Registration 0%
2011-09-08 12:35:55 PowerDVD 5 Deluxe - CD-Key 0%
2011-09-08 12:35:55 PowerDVD 9.0 Version Deluxe 9.0.1719.0 Deluxe 0%
2011-09-08 12:35:55 PowerDVD 9.0 Version Ultra 9.0 Ultra 0%
2011-09-08 12:35:55 PowerDVD 9.0 Version Ultra 9.0.1719.0 Ultra 0%
2011-09-08 12:37:02 Quant v2.0 Registration 0%
2011-09-08 12:39:02 Publicity 3.4 build 5 0%
2011-09-08 12:39:02 Publicity v3.4 build 5 0%
2011-09-08 12:41:14 Registration Suite 1.0 60%
2011-09-08 12:41:14 Registration Suite v1.0 60%
2011-09-08 12:41:14 Registration Wizard Pro 5.01 0%
2011-09-08 12:41:14 Registration Wizard Pro v5.01 60%
2011-09-08 12:43:36 RightClick Enhanced Version: 1.20 Build 739 0%
2011-09-08 12:47:51 Simply Accounting Version 9.0 0%
2011-09-08 12:49:47 SoftReef Lab CompuPIC version 6.23 build 13 0%
2011-09-08 12:50:54 Spb Pocket Plus 3.1 beta 5- build 5197 3.1 beta 5- build 5197 0%
2011-09-08 12:50:54 Spb Pocket Plus v3.1 Beta 5 build 5197 100%
2011-09-08 12:52:22 TelePort Pro version 1.29 Build 1530 1.29 Build 1530 0%
2011-09-08 12:54:09 Time Registration (German) 1.10 0%
2011-09-08 12:54:14 TimeSlips 10.5 enterprise - with registration code! 0%
2011-09-08 12:54:35 Toast 9.0 9.0 0%
2011-09-08 12:57:45 SpyNet 3.12 Build 5 0%
2011-09-08 12:57:45 SpyNet v3.12 Build 5 0%
2011-09-08 12:58:40 Steganos Antispyware 2006 Version: 8.4.3 ( Build 395) 0%
2011-09-08 12:59:30 Super Collapse Registration 100%
2011-09-08 13:07:56 Ultra Hal Assistant Advanced Version 5 0%
2011-09-08 13:12:41 Visual CASE Version v1.0 build 120SP1 0%
2011-09-08 13:13:00 VMWare Workstation 5 Public Beta - e.x.p. build 11608 0%
2011-09-08 13:17:28 WIN XP Prof 5 User Version 0%
2011-09-08 13:17:35 Winamp 5 Full Version 0%
2011-09-08 13:18:23 Windows Longhorn Version: ALFA build 4015 0%
2011-09-08 13:18:31 Windows XP Build 2474/5 0%
2011-09-08 13:18:59 WinHacker 95 v2.02 Registration 57%
2011-09-08 13:19:40 WinSCL Version 4.0 Build 149 0%
2011-09-08 13:20:02 WinZip 9.0 Beta 2 Build 5611 0%
2011-09-08 13:20:02 winzip 9.0 Build 0%
2011-09-08 13:20:22 WM Recorder 9.0 build 100803 0%
2011-09-08 13:20:32 Word Key v7.0.1180 Full Version 61%
2011-09-08 13:23:15 Yipe! II for Windows Registration #154 0%
2012-12-11 22:51:01 4Media DVD Ripper Platinum 5 5.0.51 build 0910 16%
2012-12-11 23:19:28 Acdsee Pro 5 Serials Key 0%
2012-12-11 23:26:42 Acoustica Mixcraft V.5 Build 152 0%
2012-12-12 03:01:07 Autodesk Softimage 2011 (English) 32-Bit full version + original Cd key 16%
2012-12-12 03:12:29 Avast Antivirus 5 Free Version 0%
2012-12-12 03:22:03 AVG Anti-Virus Professional 9.0 Build 663a1706 0%
2012-12-12 04:36:32 Brasfoot 2011 - No Build Version 0%
2012-12-12 05:08:15 Camptasia Stdudio Version 7.0.0 (Build 1426) 0%
2012-12-12 05:10:15 Camtasia Studio Version 7.1.1(Build 1785) 0%
2012-12-12 08:07:32 Download avast 5.0.667 Antivirus registration 0%
2012-12-12 08:12:19 Dreamweaver Key-5 0%
2012-12-12 11:01:11 Eset nod32 version 5 0%
2012-12-12 14:16:47 HipSoft Build-a-lot 5.The Elizabethan Era v1.0 10%
2012-12-12 14:16:47 HipSoft Build-a-lot 5.The Elizabethan Era v1.1 55%
2012-12-12 19:40:26 Microsoft Visual Basic 2008 Express Edition Registration key 20%
2012-12-12 22:51:43 Norton 360 version 5 0%
2012-12-12 23:16:08 O.O.SafeErase.5.Professional.Edition.5.1.Build.712 0%